Home > Weather > Thousand Oaks > Past weeks

Flag for U.S.A. Weather for the Past 2 Weeks in Thousand Oaks, California, U.S.A.

Now
90 °F

Sunny.


Feels Like: 86 °F
Forecast: 60 / 85 °F
Wind: 17 mph from Northeast

Location: Camarillo Airport

Current Time: Feb 9, 2016 at 1:18:26 PM

Latest Report: Feb 9, 2016 at 12:55 PM


Visibility: 10 mi

Pressure: 30.10 "Hg

Humidity: 9%

Dew point: 24 °F

Location of Thousand OaksLocation

Historic Weather in Thousand Oaks — Graph

°F

Thousand Oaks Temperature Yesterday

Maximum temperature yesterday: 86 °F (at 1:55 PM)
Minimum temperature yesterday: 71 °F (at 11:55 PM)
Average temperature yesterday: 78 °F

High & Low Weather Summary for the Past Weeks

 TemperatureHumidityPressure
High89 °F (Feb 9, 11:55 AM)93% (Jan 31, 7:55 AM)30.41 "Hg (Jan 31, 7:55 AM)
Low36 °F (Feb 2, 5:55 AM)9% (Feb 7, 2:55 PM)29.60 "Hg (Jan 31, 12:01 PM)
Average61 °F41%30.16 "Hg
* Reported Jan 25 11:55 AM — Feb 9 11:55 AM, Thousand Oaks, Weather by CustomWeather, © 2016

Note: Actual official high and low records may vary slightly from our data, if they occured in-between our weather recording intervals... More about our weather records

Advertising

Thousand Oaks Weather History for the Previous 24 Hours

 ConditionsComfort  
Time TempWeatherWind HumidityBarometerVisibility
11:55 AM
Tue, Feb 9
89 °FSunny.21 mph9%30.14 "Hg10 mi
10:55 AM87 °FSunny.18 mph10%30.17 "Hg10 mi
9:55 AM83 °FSunny.18 mph12%30.18 "Hg10 mi
8:55 AM79 °FSunny.15 mph15%30.19 "Hg10 mi
6:55 AM70 °FSunny.13 mph18%30.16 "Hg10 mi
5:55 AM72 °FClear.15 mph17%30.15 "Hg10 mi
4:55 AM72 °FClear.15 mph17%30.13 "Hg10 mi
3:55 AM72 °FClear.15 mph17%30.12 "Hg10 mi
2:55 AM72 °FClear.15 mph17%30.13 "Hg10 mi
1:55 AM74 °FClear.16 mph15%30.13 "Hg10 mi
12:55 AM72 °FClear.13 mph17%30.13 "Hg10 mi
11:55 PM
Mon, Feb 8
71 °FClear.10 mph17%30.14 "Hg10 mi
10:55 PM75 °FClear.13 mph13%30.14 "Hg10 mi
9:55 PM76 °FClear.15 mph12%30.15 "Hg10 mi
8:55 PM75 °FClear.14 mph13%30.15 "Hg10 mi
7:55 PM76 °FClear.16 mph13%30.14 "Hg10 mi
6:55 PM78 °FClear.16 mph12%30.11 "Hg10 mi
5:55 PM80 °FClear.15 mph11%30.12 "Hg10 mi
4:55 PM83 °FSunny.17 mph10%30.11 "Hg10 mi
3:55 PM85 °FSunny.23 mph10%30.10 "Hg10 mi
2:55 PM86 °FSunny.31 mph9%30.09 "Hg10 mi
1:55 PM86 °FSunny.29 mph9%30.11 "Hg10 mi
Weather by CustomWeather, © 2016

See weather overviewHow to use our weather pages